SCP
1 1 1 1 1 0 0 0 0 0 0 0 0 0 0 0 0 0 0 0 0 0 0 0 0 0 0 0 0 0 0 0 0 0 0 0 0 0 0 0 0 0 0 0
1 1 1 1 1 0 0 0 0 0 0 0 0 0 0 0 0 0 0 0 0 0 0 0 0 0 0 0 0 0 0 0 0 0 0 0 0 0 0 0 0 0 0 0
1 1 1 1 0 0 0 0 0 0 0 0 0 0 0 0 0 0 0 0 0 0 0 0 0 0 0 0 0 0 0 0 0 0 0 0 0 0 0 0 0 0 0 0
1 1 1 1 0 0 0 0 0 0 0 0 0 0 0 0 0 0 0 0 0 0 0 0 0 0 0 0 0 0 0 0 0 0 0 0 0 0 0 0 0 0 0 0
1 1 1 0 0 0 0 0 0 0 0 0 0 0 0 0 0 0 0 0 0 0 0 0 0 0 0 0 0 0 0 0 0 0 0 0 0 0 0 0 0 0 0 0
0 0 0 0 0 0 0 0 0 0 0 0 0 0 0 0 0 0 0 0 0 0 0 0 0 0 0 0 0 0 0 0 0 0 0 0 0 0 0 0 0 0 0 0
0 0 0 0 0 0 0 0 0 0 0 0 0 0 0 0 0 0 0 0 0 0 0 0 0 0 0 0 0 0 0 0 0 0 0 0 0 0 0 0 0 0 0 0
0 0 0 0 0 0 0 0 0 0 0 0 0 0 0 0 0 0 0 0 0 0 0 0 0 0 0 0 0 0 0 0 0 0 0 0 0 0 0 0 0 0 0 0
0 0 0 0 0 0 0 0 0 0 0 0 0 0 0 0 0 0 0 0 0 0 0 0 0 0 0 0 0 0 0 0 0 0 0 0 0 0 0 0 0 0 0 0
0 0 0 0 0 0 0 0 0 0 0 0 0 0 0 0 0 0 0 0 0 0 0 0 0 0 0 0 0 0 0 0 0 0 0 0 0 0 0 0 0 0 0 0
0 0 0 0 0 0 0 0 0 0 0 0 0 0 0 0 -0 -0 -0 0 0 0 0 0 0 0 0 0 0 0 0 0 0 0 0 0 0 0 0 0 0 0 0 0
0 0 0 0 0 0 0 0 0 0 0 0 0 0 0 0 0 -0 -0 -0 0 0 0 0 0 0 0 0 0 0 0 0 0 0 0 0 0 0 0 0 0 0 0 0
0 0 0 0 0 0 0 0 0 0 0 0 0 0 0 0 0 -0 -0 -0 0 0 0 0 0 0 0 0 0 0 0 0 0 0 0 0 0 0 0 0 0 0 0 0
0 0 0 0 0 0 0 0 0 0 0 0 0 0 0 0 0 0 0 0 0 0 0 0 0 0 0 0 0 0 0 0 0 0 0 0 0 0 0 0 0 0 0 0
0 0 0 0 0 0 0 0 0 0 0 0 0 0 0 0 0 0 0 0 0 0 0 0 0 0 0 0 0 0 0 0 0 0 0 0 0 0 0 0 0 0 0 0
0 0 0 0 0 0 0 0 0 0 0 0 0 0 0 0 0 0 0 0 0 0 0 0 0 0 0 0 0 0 0 0 0 0 0 0 0 0 0 0 0 0 0 0
0 0 0 0 0 0 0 0 0 0 0 0 0 0 0 0 0 0 0 0 0 0 0 0 0 0 0 0 0 0 0 0 0 0 0 0 0 0 0 0 0 0 0 0
0 0 0 0 0 0 0 0 0 0 0 0 0 0 0 0 0 0 0 0 0 0 0 0 0 0 0 0 0 0 0 0 0 0 0 0 0 0 0 0 0 0 0 0
0 0 0 0 0 0 0 0 0 0 0 0 0 0 0 0 0 0 0 0 0 0 0 0 0 0 0 0 0 0 0 0 0 0 0 0 0 0 0 0 0 0 0 0
0 0 0 0 0 0 0 0 0 0 0 0 0 0 0 0 0 0 0 0 0 0 0 0 0 0 0 0 0 0 0 0 0 0 0 0 0 0 0 0 0 0 0 0
0 0 0 0 0 0 0 0 0 0 0 0 0 0 0 0 0 0 0 0 0 0 0 0 0 0 0 0 0 0 0 0 0 0 0 0 0 0 0 0 0 0 0 0
0 0 0 0 0 0 0 0 0 0 0 0 0 0 0 0 0 0 0 0 0 0 0 0 0 0 0 0 0 0 0 0 0 0 0 0 0 0 0 0 0 0 0 0
0 0 0 0 0 0 0 0 0 0 0 0 0 0 0 0 0 0 0 0 0 0 0 0 0 0 0 0 0 0 0 0 0 0 0 0 0 0 0 0 0 0 0 0
0 0 0 0 0 0 0 0 0 0 0 0 0 0 0 0 0 0 0 0 0 0 0 0 0 0 0 0 0 0 0 0 0 0 0 0 0 0 0 0 0 0 0 0
0 0 0 0 0 0 0 0 0 0 0 0 0 0 0 0 0 0 0 0 0 0 0 0 0 0 0 0 0 0 0 0 0 0 0 0 0 0 0 0 0 0 0 0
0 0 0 0 0 0 0 0 0 0 0 0 0 0 0 0 0 0 0 0 0 0 0 0 0 0 0 0 0 0 0 0 0 0 0 0 0 0 0 0 0 0 0 0
Wind_Speed
4 5 5 9 8 5 5 5 4 4 3 5 6 6 5 4 5 6 6 6 6 6 4 3 3 3 1 1 1 1 2 2 2 2 2 2 3 3 3 3 3 3 3 3
4 3 6 5 5 4 4 3 3 2 2 4 2 5 5 4 7 7 8 8 7 5 3 3 3 2 2 2 2 2 2 2 2 1 1 2 2 3 3 3 3 3 3 3
6 4 6 7 6 5 3 5 4 2 2 3 2 6 4 2 2 3 5 6 6 8 7 5 4 4 3 3 3 3 3 3 3 2 1 2 2 2 3 3 3 4 4 3
3 2 6 6 5 6 4 4 4 3 3 2 1 3 6 3 2 4 5 6 7 6 6 5 5 4 5 5 3 3 3 3 3 2 1 1 1 2 3 3 3 4 4 3
2 4 5 5 5 6 3 3 4 3 3 2 1 1 8 2 4 6 6 7 7 7 7 7 7 6 5 4 3 3 2 3 2 2 1 1 1 2 3 3 4 4 4 4
1 1 2 4 2 4 5 6 6 6 5 1 2 3 7 4 6 5 5 7 7 7 6 6 5 4 3 3 2 2 2 3 2 2 2 1 2 3 3 4 4 4 3 3
2 1 0 3 5 3 4 6 4 4 4 5 2 3 9 6 6 6 6 7 7 7 6 6 6 5 4 4 4 3 2 3 3 2 2 2 2 2 2 3 3 4 3 3
3 1 2 2 4 5 4 7 6 4 4 5 2 5 8 5 4 3 4 4 5 6 6 7 7 6 5 5 4 3 3 4 3 3 3 2 2 1 2 2 2 3 3 3
5 2 2 1 2 8 6 3 5 7 2 2 5 7 8 2 1 1 2 4 6 7 7 7 6 6 5 5 5 4 4 4 3 3 2 2 2 2 2 3 2 2 3 3
5 3 1 0 5 5 4 8 6 5 3 3 6 5 5 5 6 4 4 6 7 6 6 6 6 6 5 5 4 3 3 4 3 2 2 1 2 2 2 2 3 3 4 4
3 4 1 2 2 4 4 4 6 5 5 5 3 8 7 7 7 7 8 7 7 7 7 7 6 5 5 4 3 3 3 3 3 2 2 2 2 2 2 2 3 3 3 4
3 5 1 3 2 2 4 6 7 5 3 4 3 10 6 6 6 6 7 6 6 6 6 6 6 4 4 4 4 4 4 4 3 2 2 2 2 2 2 3 3 3 3 4
5 6 3 6 5 1 2 4 4 6 6 5 4 10 5 2 3 5 6 6 5 5 5 4 4 5 5 5 5 4 4 4 3 2 1 1 2 2 2 3 3 3 3 4
6 5 6 7 7 4 3 4 5 6 5 5 9 10 8 5 6 6 6 6 5 5 5 5 5 6 5 5 5 5 5 4 3 2 2 2 3 2 2 3 3 3 3 3
5 3 4 5 4 3 4 5 7 8 9 9 9 9 12 9 9 7 6 5 5 5 6 7 7 6 5 5 5 5 5 4 3 3 3 4 3 2 2 2 3 3 3 3
3 3 1 3 2 3 4 7 8 8 6 7 6 10 11 7 3 4 6 7 8 8 8 8 7 7 7 7 6 5 5 4 4 4 4 3 2 2 2 3 3 3 3 3
3 5 3 3 4 2 7 9 9 7 8 9 11 13 6 4 8 9 9 9 10 9 9 8 8 8 8 7 7 7 6 4 4 4 4 3 3 3 3 2 2 3 3 3
7 5 4 1 1 5 10 4 6 7 8 10 9 8 7 10 8 6 7 9 10 9 8 8 7 7 6 5 5 4 4 4 4 4 4 4 3 3 3 2 3 3 2 3
5 8 5 3 2 8 10 5 5 6 8 9 11 10 5 3 1 4 6 8 9 9 8 8 7 6 6 6 6 5 4 4 4 4 5 4 4 4 3 3 4 3 2 3
5 5 6 4 3 6 10 4 3 3 6 6 8 8 6 8 3 7 6 7 7 6 5 6 5 5 5 5 6 6 5 4 5 6 5 4 4 4 4 5 4 3 2 3
2 3 4 5 5 9 10 3 4 3 9 4 6 7 10 10 9 5 5 6 6 6 6 6 6 5 5 6 7 6 5 6 6 4 3 3 3 4 4 4 3 3 2 3
7 6 6 5 4 11 5 5 8 9 4 3 4 6 10 9 4 3 6 6 7 6 6 6 6 5 4 6 7 6 5 5 3 2 2 2 2 3 2 3 3 2 2 2
7 9 8 10 10 7 3 7 6 3 5 5 5 6 8 7 6 6 6 7 7 7 7 6 7 6 4 5 6 7 5 3 3 3 2 2 1 1 1 1 2 1 1 1
4 3 3 5 10 8 8 7 7 6 7 6 6 5 7 8 8 7 7 7 7 6 7 6 7 7 5 4 4 5 3 3 4 3 2 1 0 1 1 1 0 0 1 1
5 4 3 6 9 9 8 6 6 5 6 6 5 6 8 9 8 9 8 8 8 6 6 7 8 7 6 5 4 3 3 5 4 3 2 1 1 1 1 2 1 2 2 1
6 7 7 9 9 6 9 8 6 6 8 8 6 6 6 9 10 9 8 8 8 8 7 7 7 7 6 5 4 3 3 5 5 3 2 1 1 1 1 2 3 6 6 10
Wind_Direction
124 111 166 188 185 175 170 179 220 244 186 177 224 256 264 204 198 203 202 204 210 218 220 191 184 175 159 194 271 287 306 316 336 342 342 336 327 323 329 331 334 335 335 337
91 189 199 167 151 139 155 180 233 275 153 176 248 278 275 212 208 206 203 205 206 205 198 194 192 188 201 229 251 270 279 296 310 301 286 270 283 295 295 309 330 336 339 337
153 199 149 134 146 152 181 191 209 204 64 50 13 316 308 287 225 200 197 197 199 199 200 202 201 211 222 237 241 250 261 282 302 315 332 342 347 336 339 337 335 330 334 335
153 153 137 138 168 161 221 222 183 143 106 312 62 289 292 299 280 225 209 199 204 205 198 201 205 216 226 235 240 249 260 281 303 326 348 352 347 322 303 305 307 318 331 337
173 155 146 169 192 170 179 64 97 98 120 23 10 187 286 313 266 251 227 212 210 206 200 205 209 217 227 231 232 247 269 285 306 329 326 335 323 292 300 312 327 334 334 338
130 170 170 174 111 128 122 74 58 50 68 329 239 174 277 243 228 247 228 211 206 202 202 212 218 221 233 236 239 247 264 282 303 322 325 321 310 316 331 337 341 338 332 334
55 17 336 130 101 71 92 86 35 359 8 258 271 204 252 254 238 226 221 213 204 196 194 204 210 217 228 233 236 239 252 276 298 310 309 305 303 309 317 320 329 334 334 332
125 261 247 178 156 153 147 133 154 200 231 283 311 239 256 261 268 236 212 195 189 193 198 207 212 215 223 233 234 233 243 264 287 294 297 306 311 308 303 311 315 320 315 310
157 225 330 95 126 126 128 139 153 128 158 295 288 286 300 242 245 194 180 176 199 206 207 214 219 220 223 230 230 225 230 253 274 281 294 310 317 318 316 324 332 329 325 327
143 145 334 91 82 42 124 138 103 109 139 278 298 283 258 252 240 232 219 217 223 216 214 219 220 221 224 226 230 223 219 236 256 271 282 301 309 313 319 337 345 340 337 345
120 124 2 43 158 175 112 96 101 106 143 155 275 276 232 228 221 217 224 222 219 215 213 215 217 219 222 225 220 218 222 234 253 262 278 306 314 323 339 343 335 334 338 347
124 112 118 276 282 218 175 163 146 147 194 165 184 269 267 245 240 221 228 228 219 215 211 211 211 209 214 222 222 221 222 227 238 243 259 287 308 334 344 332 329 337 343 346
135 108 69 349 340 339 158 150 141 123 118 153 179 263 293 279 241 227 227 230 222 215 209 204 204 210 218 223 223 224 224 227 233 222 238 281 302 314 314 314 324 336 341 345
112 114 159 198 225 212 208 176 153 134 153 199 221 249 285 268 246 238 227 223 216 213 206 202 209 218 222 224 223 224 230 224 216 207 220 252 267 274 286 303 319 325 330 337
108 156 216 235 237 204 222 212 183 190 192 195 229 229 248 242 229 229 221 210 205 211 211 209 211 217 219 224 227 223 226 218 203 201 222 243 259 269 286 300 308 316 324 327
103 154 183 289 288 224 247 241 209 215 212 220 244 260 247 245 219 219 213 201 207 216 217 214 212 211 213 217 219 217 221 214 194 205 227 241 252 263 272 283 299 313 317 320
133 137 137 267 307 355 272 236 203 206 205 189 216 241 238 207 212 216 212 204 210 214 212 210 207 207 209 209 206 209 213 195 191 212 229 235 240 252 262 275 294 296 300 310
143 131 139 196 20 248 247 249 203 213 234 210 223 239 217 214 221 221 202 199 211 211 208 209 205 205 207 201 196 192 179 181 195 213 229 232 229 244 259 269 274 277 281 288
144 136 128 137 215 279 293 271 187 193 263 221 217 236 228 188 96 285 218 199 206 204 199 199 194 190 185 187 180 163 170 177 193 217 230 230 221 234 249 257 263 263 267 279
76 105 121 139 183 246 255 260 178 136 281 254 201 212 175 134 163 249 218 191 199 191 182 178 168 162 171 180 158 157 174 182 211 223 229 227 214 221 237 248 256 252 248 266
110 96 145 170 213 259 253 252 132 171 245 258 194 189 169 183 202 217 170 174 176 173 170 158 153 162 175 159 150 161 176 206 222 221 222 226 222 226 237 248 249 253 263 281
183 173 188 156 189 254 247 153 182 219 246 246 208 191 189 209 209 177 172 172 164 159 155 152 152 161 155 152 154 166 197 220 208 188 203 231 242 247 247 247 266 262 261 285
200 193 187 188 213 236 226 215 239 242 251 245 220 212 191 195 201 191 185 177 172 166 161 156 153 148 142 157 162 175 208 199 168 164 196 237 267 279 282 257 275 287 267 270
258 177 176 248 266 263 258 251 253 233 236 250 235 213 184 194 196 189 184 178 173 170 164 154 148 149 158 163 168 185 186 162 153 164 193 206 232 332 354 4 11 20 322 300
238 172 214 259 276 300 293 255 253 256 250 250 237 213 201 193 194 188 186 184 178 170 162 158 159 160 163 158 161 170 164 150 148 153 151 126 107 98 63 61 63 67 45 66
207 197 208 242 247 244 271 283 283 270 263 250 235 231 215 197 197 189 188 182 172 167 158 155 156 155 155 151 150 153 152 147 144 138 134 122 110 99 97 92 65 53 63 53